Voltar ao catálogo

OPS 4682 DEB

AtivoPO
NORAD 38427·DEBRIS·🇺🇸 United States

Lançado Apr 3, 1965 de Vandenberg Space Force Base

Loading…

Próximas Passagens (próximas 24 horas)

TLE

AtualizadoSource: Space-Track

Época: Sep 14, 2026, 06:27 UTC

1 38427U 65027EG  26257.26918042 -.00000959  00000-0 -36233-2 0  9992
2 38427  90.2362   2.4994 0028674 311.5778  48.2882 12.91358338673242

Acompanhe OPS 4682 DEB em tempo real com AllMySat

Download on the App Store